Regional Weather Roundup
Issued by NWS Green Bay, WI

Home | Current Version | Previous Version | Graphics & Text | Print | Product List | Glossary Off
Versions: 1 2 3 4 5 6 7 8 9 10 11 12 13 14 15 16 17 18 19 20 21 22 23 24 25 26 27 28 29 30 31 32 33 34 35 36 37 38 39 40 41 42 43 44 45 46 47 48 49 50

000
ASUS43 KGRB 010411
RWRGRB

NORTH-CENTRAL AND NORTHEAST WISCONSIN REGIONAL WEATHER ROUNDUP
NATIONAL WEATHER SERVICE GREEN BAY WI
1100 PM CDT SAT APR 30 2016

WIZ005-009-010>012-018-019-010500-
NORTH CENTRAL WISCONSIN

CITY           SKY/WX    TMP DP  RH WIND       PRES   REMARKS
IRONWOOD         N/A     37  32  81 E3        30.17F
MANITOWISH WTR CLOUDY    39  32  77 NE9       30.16S
ARBOR VITAE    CLOUDY    42  33  71 NE8       30.14F
EAGLE RIVER    CLOUDY    38  30  73 NE8       30.14S
LAND O LAKES   CLOUDY    38  32  79 N6        30.16F
RHINELANDER    MOCLDY    42  31  64 NE8       30.13S
PHILLIPS       PTCLDY    42  31  66 NE14      30.13S
ANTIGO         CLOUDY    44  32  63 NE10      30.10R
TOMAHAWK       CLOUDY    43  32  64 NE8G20    30.13R
MERRILL        CLOUDY    48  32  53 E14       30.10S
$$

WIZ013-073-010500-
NORTHEAST WISCONSIN

CITY           SKY/WX    TMP DP  RH WIND       PRES   REMARKS
IRON MOUNTAIN  CLOUDY    41  32  70 N7        30.12F
MARINETTE      CLOUDY    45  30  57 NE13G18   30.09F
OCONTO         CLOUDY    47  32  55 N12G17    30.06F
$$

WIZ017-030-035>037-045-010500-
CENTRAL WISCONSIN

CITY           SKY/WX    TMP DP  RH WIND       PRES   REMARKS
MEDFORD        CLOUDY    48  32  55 NE13      30.08R
WAUSAU         CLOUDY    51  31  46 NE10      30.06S
MOSINEE        CLOUDY    46  32  57 NE12      30.08S
MARSHFIELD     CLOUDY    48  33  56 E6        30.06R
WISC RAPIDS    CLOUDY    49  32  52 E8        30.07S
STEVENS POINT  CLOUDY    47  32  55 E15G28    30.07R
WAUPACA        CLOUDY    50  33  51 N8        30.06S
SHAWANO        CLOUDY    50  34  53 NE13G20   30.08R
CLINTONVILLE   CLOUDY    48  32  53 NE10      30.08R
WAUTOMA        CLOUDY    44  40  85 CALM      30.05S
$$

WIZ038-039-048-051-010500-
FOX VALLEY

CITY           SKY/WX    TMP DP  RH WIND       PRES   REMARKS
NWS GREEN BAY  CLOUDY    47  35  63 NE25G35   30.06S
APPLETON       CLOUDY    48  30  49 NE14G24   30.03R
OSHKOSH        CLOUDY    48  35  60 NE12      30.03S
FOND DU LAC    CLOUDY    45  38  76 E8        30.04R
$$

WIZ022-050-052-010500-
EAST CENTRAL WISCONSIN

CITY           SKY/WX    TMP DP  RH WIND       PRES   REMARKS
EPHRAIM        FAIR      41  35  77 NE14      30.08F
STURGEON BAY   CLOUDY    45  34  65 NE13      30.09F
MANITOWOC      CLOUDY    46  35  65 MISG      30.06R
SHEBOYGAN      LGT RAIN  41  38  89 NE9       30.03S
$$

LMZ563-521-522-541>543-010500-
LAKESHORE

STATION/POSITION TIME  TEMP    WIND        PRES    VSBY  WAVE
                       AIR SEA DIR/SP/G                  HT/PER
                 (UTC) (F)     (DEG/KT/KT) (MB)    (MI)  (FT/S)
SHEBOYGAN LKSHOR 0400   42      10/ 11/ 12 1017.8R
KEWAUNEE LKSHORE 0300   47      30/ 17/ 23 1017.1F
ALGOMA MARINA    0315           40/ 17/ 23   N/A
NORTHPORT PIER   0300   44      10/ 16/ 25 1019.6F
N MID LAKE BUOY  0350   41 39   10/ 14/ 16 1019.1F         2/ 4
CHAMBERS ISLAND  0300   43     360/ 18/ 22 1019.6S
MENOMINEE LKSHOR 0306   45      10/ 17/ 18 1017.9F
$$




USA.gov is the U.S. government's official web portal to all federal, state and local government web resources and services.